RYR6R EGSS-LEAM

Flight info

Callsign RYR6R
Flight time 2h 47m
Altitude 35000
Route NUGBO M183 SILVA Q41 COWLY UT71 VAPID UN859 SOPIL DCT BALAN DCT LMG DCT PIMQO DCT AGN DCT ANETO N860 DOSEK
Aircraft B738/M-SDE2E3FGHIRWXY/LB1

Departure

Time 2026-05-04 13:37
Airport London Stansted Airport (EGSS)

Arrival

Time 2026-05-04 16:24
Airport Almería Airport (LEAM)
Time Latitude Longitude Altitude Speed Heading
2026-05-04 12:51 51.89173 0.25483 340 ft 0 kts 43°
2026-05-04 13:20 51.89172 0.25481 356 ft 2 kts 43°
2026-05-04 13:20 51.89153 0.25453 358 ft 4 kts 44°
2026-05-04 13:20 51.89133 0.25433 357 ft 4 kts 357°
2026-05-04 13:20 51.89110 0.25446 365 ft 4 kts 315°
2026-05-04 13:21 51.89103 0.25457 365 ft 0 kts 311°
2026-05-04 13:21 51.89103 0.25458 365 ft 0 kts 311°
2026-05-04 13:25 51.89105 0.25454 359 ft 2 kts 311°
2026-05-04 13:25 51.89139 0.25393 359 ft 11 kts 311°
2026-05-04 13:26 51.89171 0.25276 355 ft 12 kts 249°
2026-05-04 13:26 51.89111 0.25180 355 ft 13 kts 224°
2026-05-04 13:26 51.89030 0.25057 356 ft 19 kts 222°
2026-05-04 13:26 51.88927 0.24906 353 ft 20 kts 223°
2026-05-04 13:27 51.88826 0.24752 352 ft 20 kts 223°
2026-05-04 13:27 51.88728 0.24604 358 ft 19 kts 223°
2026-05-04 13:27 51.88633 0.24461 358 ft 18 kts 223°
2026-05-04 13:27 51.88541 0.24323 357 ft 18 kts 223°
2026-05-04 13:28 51.88452 0.24190 355 ft 17 kts 223°
2026-05-04 13:28 51.88367 0.24060 348 ft 16 kts 223°
2026-05-04 13:28 51.88284 0.23937 348 ft 16 kts 223°
2026-05-04 13:28 51.88206 0.23819 350 ft 15 kts 223°
2026-05-04 13:29 51.88129 0.23704 350 ft 16 kts 223°
2026-05-04 13:29 51.88036 0.23565 349 ft 20 kts 223°
2026-05-04 13:29 51.87931 0.23408 345 ft 20 kts 223°
2026-05-04 13:29 51.87830 0.23255 347 ft 20 kts 223°
2026-05-04 13:30 51.87735 0.23106 348 ft 18 kts 238°
2026-05-04 13:30 51.87780 0.22942 350 ft 17 kts 293°
2026-05-04 13:30 51.87722 0.22798 347 ft 16 kts 223°
2026-05-04 13:30 51.87642 0.22676 341 ft 15 kts 223°
2026-05-04 13:31 51.87565 0.22561 336 ft 15 kts 222°
2026-05-04 13:31 51.87515 0.22442 338 ft 13 kts 281°
2026-05-04 13:31 51.87556 0.22359 338 ft 0 kts 316°
2026-05-04 13:32 51.87560 0.22353 339 ft 3 kts 316°
2026-05-04 13:33 51.87594 0.22303 336 ft 10 kts 321°
2026-05-04 13:33 51.87677 0.22264 336 ft 14 kts 12°
2026-05-04 13:33 51.87742 0.22346 338 ft 7 kts 44°
2026-05-04 13:33 51.87769 0.22387 341 ft 2 kts 42°
2026-05-04 13:36 51.87770 0.22389 341 ft 3 kts 42°
2026-05-04 13:37 51.87981 0.22699 347 ft 84 kts 42°
2026-05-04 13:37 51.88621 0.23632 362 ft 159 kts 38°
2026-05-04 13:37 51.89491 0.24928 1060 ft 179 kts 41°
2026-05-04 13:37 51.90441 0.26369 2028 ft 194 kts 42°
2026-05-04 13:38 51.91438 0.27932 2853 ft 205 kts 44°
2026-05-04 13:38 51.92523 0.29469 3380 ft 215 kts 34°
2026-05-04 13:38 51.93931 0.30443 3780 ft 231 kts
2026-05-04 13:38 51.95572 0.29953 3973 ft 253 kts 329°
2026-05-04 13:39 51.96800 0.27914 4567 ft 258 kts 298°
2026-05-04 13:39 51.97329 0.25073 4975 ft 265 kts 278°
2026-05-04 13:39 51.97545 0.22076 5037 ft 271 kts 275°
2026-05-04 13:39 51.97744 0.19073 4984 ft 271 kts 276°
2026-05-04 13:40 51.97978 0.16065 4996 ft 267 kts 277°
2026-05-04 13:40 51.98259 0.13062 5260 ft 271 kts 279°
2026-05-04 13:40 51.98572 0.10024 6163 ft 272 kts 279°
2026-05-04 13:40 51.98885 0.07001 7120 ft 271 kts 276°
2026-05-04 13:41 51.98766 0.03996 7995 ft 271 kts 257°
2026-05-04 13:41 51.98351 0.01008 8886 ft 273 kts 257°
2026-05-04 13:41 51.97943 -0.02051 9701 ft 278 kts 257°
2026-05-04 13:42 51.97140 -0.08242 11316 ft 283 kts 257°
2026-05-04 13:42 51.96736 -0.11355 12077 ft 287 kts 257°
2026-05-04 13:42 51.96320 -0.14546 12875 ft 290 kts 257°
2026-05-04 13:42 51.95898 -0.17779 13642 ft 294 kts 257°
2026-05-04 13:43 51.95470 -0.21051 14362 ft 298 kts 257°
2026-05-04 13:43 51.95037 -0.24357 15050 ft 301 kts 257°
2026-05-04 13:43 51.94604 -0.27656 15727 ft 305 kts 257°
2026-05-04 13:43 51.94158 -0.31043 16407 ft 308 kts 256°
2026-05-04 13:44 51.93706 -0.34475 17088 ft 312 kts 256°
2026-05-04 13:44 51.93248 -0.37943 17774 ft 316 kts 256°
2026-05-04 13:44 51.92788 -0.41412 18413 ft 320 kts 256°
2026-05-04 13:44 51.92317 -0.44963 19022 ft 323 kts 256°
2026-05-04 13:45 51.91842 -0.48537 19655 ft 325 kts 256°
2026-05-04 13:45 51.91367 -0.52096 20269 ft 327 kts 256°
2026-05-04 13:45 51.90882 -0.55731 20899 ft 330 kts 256°
2026-05-04 13:45 51.90393 -0.59380 21507 ft 333 kts 256°
2026-05-04 13:46 51.89898 -0.63062 22106 ft 336 kts 256°
2026-05-04 13:46 51.89402 -0.66743 22688 ft 339 kts 256°
2026-05-04 13:46 51.88896 -0.70490 23269 ft 342 kts 256°
2026-05-04 13:46 51.88386 -0.74265 23808 ft 344 kts 256°
2026-05-04 13:47 51.87868 -0.78078 24287 ft 347 kts 256°
2026-05-04 13:47 51.87354 -0.81865 24776 ft 349 kts 256°
2026-05-04 13:47 51.86828 -0.85726 25258 ft 351 kts 256°
2026-05-04 13:47 51.86296 -0.89614 25744 ft 353 kts 255°
2026-05-04 13:48 51.85761 -0.93448 26217 ft 354 kts 252°
2026-05-04 13:48 51.84727 -0.97046 26660 ft 352 kts 231°
2026-05-04 13:48 51.82988 -0.99781 27233 ft 348 kts 213°
2026-05-04 13:48 51.80836 -1.01514 27853 ft 344 kts 196°
2026-05-04 13:49 51.78498 -1.02304 28452 ft 342 kts 190°
2026-05-04 13:49 51.76174 -1.02875 29009 ft 340 kts 189°
2026-05-04 13:49 51.73829 -1.03417 29572 ft 338 kts 189°
2026-05-04 13:49 51.71488 -1.03974 29916 ft 343 kts 189°
2026-05-04 13:50 51.66630 -1.05200 30117 ft 362 kts 190°
2026-05-04 13:50 51.61512 -1.06437 30280 ft 381 kts 185°
2026-05-04 13:51 51.56114 -1.06291 30438 ft 399 kts 179°
2026-05-04 13:51 51.50464 -1.05896 30619 ft 413 kts 179°
2026-05-04 13:52 51.44673 -1.05543 31160 ft 416 kts 179°
2026-05-04 13:52 51.41774 -1.05378 31547 ft 415 kts 179°
2026-05-04 13:52 51.38881 -1.05217 31880 ft 416 kts 179°
2026-05-04 13:53 51.35980 -1.05055 32180 ft 416 kts 179°
2026-05-04 13:53 51.33081 -1.04896 32515 ft 416 kts 179°
2026-05-04 13:53 51.30223 -1.04748 32849 ft 416 kts 179°
2026-05-04 13:54 51.24469 -1.03574 33453 ft 418 kts 165°
2026-05-04 13:54 51.21732 -1.01991 33790 ft 419 kts 157°
2026-05-04 13:54 51.16463 -0.98105 34342 ft 419 kts 156°
2026-05-04 13:55 51.13825 -0.96146 34586 ft 419 kts 156°
2026-05-04 13:55 51.08527 -0.92264 35026 ft 421 kts 157°
2026-05-04 13:55 51.05826 -0.90308 35003 ft 424 kts 157°
2026-05-04 13:56 51.00489 -0.86458 35002 ft 420 kts 157°
2026-05-04 13:57 50.92569 -0.80765 35010 ft 414 kts 157°
2026-05-04 13:58 50.82292 -0.72629 35013 ft 415 kts 149°
2026-05-04 13:58 50.75024 -0.65102 35009 ft 416 kts 149°
2026-05-04 13:59 50.70199 -0.60146 35012 ft 415 kts 149°
2026-05-04 14:00 50.62898 -0.52740 35014 ft 415 kts 149°
2026-05-04 14:00 50.55617 -0.45399 35013 ft 415 kts 149°
2026-05-04 14:01 50.50740 -0.40496 35009 ft 415 kts 149°
2026-05-04 14:02 50.43447 -0.33187 35002 ft 415 kts 149°
2026-05-04 14:02 50.38556 -0.28300 35002 ft 416 kts 149°
2026-05-04 14:03 50.33674 -0.23434 35001 ft 415 kts 149°
2026-05-04 14:03 50.28812 -0.18599 35004 ft 415 kts 149°
2026-05-04 14:04 50.21475 -0.11325 34998 ft 416 kts 149°
2026-05-04 14:04 50.16586 -0.06492 34996 ft 416 kts 149°
2026-05-04 14:05 50.09088 0.00277 34989 ft 414 kts 160°
2026-05-04 14:06 50.03583 0.02648 34993 ft 412 kts 167°
2026-05-04 14:06 49.97994 0.04757 34994 ft 412 kts 167°
2026-05-04 14:07 49.92447 0.06893 34997 ft 413 kts 167°
2026-05-04 14:07 49.86865 0.09071 35004 ft 413 kts 167°
2026-05-04 14:08 49.81280 0.11252 34989 ft 414 kts 167°
2026-05-04 14:08 49.75688 0.13431 34989 ft 414 kts 167°
2026-05-04 14:09 49.67298 0.16691 34988 ft 414 kts 167°
2026-05-04 14:10 49.58952 0.20073 34988 ft 414 kts 166°
2026-05-04 14:10 49.53406 0.22327 34996 ft 414 kts 167°
2026-05-04 14:11 49.47826 0.24581 34988 ft 414 kts 167°
2026-05-04 14:11 49.39456 0.27949 34998 ft 413 kts 167°
2026-05-04 14:12 49.33909 0.30174 34986 ft 413 kts 167°
2026-05-04 14:13 49.25597 0.33584 34989 ft 413 kts 166°
2026-05-04 14:13 49.20047 0.35934 34989 ft 412 kts 166°
2026-05-04 14:14 49.14515 0.38266 34985 ft 412 kts 166°
2026-05-04 14:14 49.06251 0.41725 34962 ft 411 kts 166°
2026-05-04 14:15 48.95235 0.46313 34962 ft 410 kts 166°
2026-05-04 14:16 48.86961 0.49747 34962 ft 409 kts 166°
2026-05-04 14:17 48.78741 0.53146 34952 ft 409 kts 167°
2026-05-04 14:18 48.70500 0.56381 34961 ft 408 kts 167°
2026-05-04 14:19 48.59453 0.60678 34959 ft 413 kts 167°
2026-05-04 14:19 48.53876 0.62848 34947 ft 412 kts 167°
2026-05-04 14:20 48.48365 0.65032 34946 ft 410 kts 167°
2026-05-04 14:20 48.43791 0.66903 34947 ft 408 kts 166°
2026-05-04 14:21 48.34699 0.70603 34950 ft 406 kts 167°
2026-05-04 14:21 48.29240 0.72810 34945 ft 405 kts 167°
2026-05-04 14:22 48.24693 0.74642 34949 ft 405 kts 167°
2026-05-04 14:22 48.19258 0.76791 34947 ft 406 kts 167°
2026-05-04 14:23 48.11041 0.80015 34947 ft 407 kts 167°
2026-05-04 14:24 48.05575 0.82158 34942 ft 408 kts 167°
2026-05-04 14:24 48.00063 0.84317 34941 ft 409 kts 167°
2026-05-04 14:25 47.94518 0.86484 34944 ft 413 kts 167°
2026-05-04 14:25 47.86197 0.89728 34925 ft 413 kts 167°
2026-05-04 14:26 47.80625 0.91892 34930 ft 412 kts 167°
2026-05-04 14:26 47.75065 0.94042 34918 ft 411 kts 168°
2026-05-04 14:27 47.69562 0.96166 34923 ft 410 kts 168°
2026-05-04 14:27 47.64041 0.98294 34925 ft 408 kts 168°
2026-05-04 14:28 47.58585 1.00392 34924 ft 406 kts 168°
2026-05-04 14:28 47.53106 1.02495 34929 ft 405 kts 168°
2026-05-04 14:29 47.42191 1.06334 34923 ft 401 kts 176°
2026-05-04 14:30 47.36665 1.06349 34924 ft 399 kts 183°
2026-05-04 14:31 47.28329 1.06083 34925 ft 399 kts 182°
2026-05-04 14:32 47.17188 1.05823 34918 ft 400 kts 182°
2026-05-04 14:32 47.11640 1.05700 34922 ft 400 kts 182°
2026-05-04 14:33 47.06075 1.05577 34914 ft 400 kts 182°
2026-05-04 14:33 47.00492 1.05436 34916 ft 400 kts 183°
2026-05-04 14:34 46.94952 1.05193 34910 ft 400 kts 184°
2026-05-04 14:34 46.89385 1.04934 34913 ft 399 kts 184°
2026-05-04 14:35 46.83823 1.04686 34913 ft 398 kts 184°
2026-05-04 14:35 46.78317 1.04448 34912 ft 398 kts 184°
2026-05-04 14:36 46.72779 1.04209 34913 ft 397 kts 184°
2026-05-04 14:36 46.67285 1.03973 34916 ft 396 kts 184°
2026-05-04 14:37 46.61744 1.03735 34909 ft 396 kts 184°
2026-05-04 14:37 46.56261 1.03500 34906 ft 395 kts 184°
2026-05-04 14:38 46.50756 1.03270 34912 ft 395 kts 183°
2026-05-04 14:38 46.45263 1.03191 34908 ft 394 kts 182°
2026-05-04 14:39 46.39781 1.03163 34909 ft 394 kts 182°
2026-05-04 14:39 46.34329 1.03122 34912 ft 393 kts 182°
2026-05-04 14:40 46.26102 1.03043 34911 ft 393 kts 182°
2026-05-04 14:40 46.20616 1.02988 34906 ft 394 kts 182°
2026-05-04 14:41 46.15168 1.02933 34918 ft 394 kts 182°
2026-05-04 14:42 46.04179 1.02824 34916 ft 394 kts 182°
2026-05-04 14:42 45.98686 1.02769 34913 ft 395 kts 182°
2026-05-04 14:43 45.93208 1.02715 34908 ft 395 kts 182°
2026-05-04 14:43 45.87699 1.02660 34912 ft 395 kts 183°
2026-05-04 14:44 45.82240 1.02632 34906 ft 394 kts 180°
2026-05-04 14:44 45.76785 1.03750 34909 ft 396 kts 173°
2026-05-04 14:45 45.71363 1.05192 34913 ft 395 kts 173°
2026-05-04 14:45 45.65966 1.06601 34910 ft 395 kts 173°
2026-05-04 14:46 45.60542 1.07994 34911 ft 395 kts 173°
2026-05-04 14:46 45.55178 1.09362 34906 ft 394 kts 173°
2026-05-04 14:47 45.49784 1.10735 34906 ft 393 kts 173°
2026-05-04 14:47 45.44396 1.12103 34906 ft 393 kts 173°
2026-05-04 14:48 45.39007 1.13469 34908 ft 392 kts 173°
2026-05-04 14:48 45.33661 1.14822 34908 ft 392 kts 173°
2026-05-04 14:49 45.28267 1.16185 34906 ft 392 kts 173°
2026-05-04 14:49 45.22871 1.17546 34902 ft 393 kts 173°
2026-05-04 14:50 45.17499 1.18802 34899 ft 391 kts 178°
2026-05-04 14:50 45.12102 1.18417 34907 ft 388 kts 191°
2026-05-04 14:51 45.06801 1.17021 34904 ft 388 kts 192°
2026-05-04 14:51 45.01497 1.15624 34904 ft 389 kts 192°
2026-05-04 14:52 44.96152 1.14240 34903 ft 390 kts 192°
2026-05-04 14:52 44.90842 1.12880 34905 ft 390 kts 191°
2026-05-04 14:53 44.85486 1.11514 34904 ft 390 kts 191°
2026-05-04 14:53 44.80163 1.10160 34896 ft 390 kts 191°
2026-05-04 14:54 44.74806 1.08800 34903 ft 390 kts 192°
2026-05-04 14:54 44.69491 1.07453 34907 ft 389 kts 192°
2026-05-04 14:55 44.64155 1.06103 34902 ft 389 kts 192°
2026-05-04 14:55 44.58828 1.04757 34907 ft 388 kts 192°
2026-05-04 14:56 44.53513 1.03418 34909 ft 387 kts 192°
2026-05-04 14:56 44.48240 1.02091 34910 ft 386 kts 192°
2026-05-04 14:57 44.42947 1.00762 34910 ft 385 kts 192°
2026-05-04 14:57 44.37670 0.99439 34913 ft 384 kts 192°
2026-05-04 14:58 44.32405 0.98122 34919 ft 384 kts 192°
2026-05-04 14:58 44.28031 0.97029 34920 ft 383 kts 192°
2026-05-04 14:59 44.21917 0.95504 34926 ft 383 kts 192°
2026-05-04 15:00 44.14045 0.93546 34932 ft 382 kts 192°
2026-05-04 15:00 44.08834 0.92252 34931 ft 382 kts 192°
2026-05-04 15:01 44.00958 0.90302 34930 ft 382 kts 192°
2026-05-04 15:01 43.95752 0.89015 34921 ft 382 kts 192°
2026-05-04 15:02 43.90498 0.87719 34931 ft 382 kts 192°
2026-05-04 15:02 43.85298 0.86393 34919 ft 382 kts 193°
2026-05-04 15:03 43.80084 0.84983 34929 ft 381 kts 193°
2026-05-04 15:03 43.74861 0.83571 34933 ft 381 kts 193°
2026-05-04 15:04 43.69683 0.82180 34927 ft 381 kts 193°
2026-05-04 15:04 43.64470 0.80787 34924 ft 381 kts 193°
2026-05-04 15:05 43.59253 0.79396 34930 ft 381 kts 193°
2026-05-04 15:05 43.54077 0.78019 34926 ft 381 kts 193°
2026-05-04 15:06 43.48855 0.76633 34930 ft 381 kts 193°
2026-05-04 15:07 43.41913 0.74793 34933 ft 382 kts 193°
2026-05-04 15:07 43.36682 0.73409 34932 ft 382 kts 193°
2026-05-04 15:08 43.31485 0.72037 34931 ft 382 kts 193°
2026-05-04 15:08 43.26247 0.70657 34941 ft 382 kts 193°
2026-05-04 15:09 43.21016 0.69281 34935 ft 382 kts 193°
2026-05-04 15:09 43.15804 0.67912 34940 ft 382 kts 193°
2026-05-04 15:10 43.07982 0.65862 34933 ft 382 kts 193°
2026-05-04 15:11 43.00142 0.63813 34938 ft 381 kts 193°
2026-05-04 15:11 42.94918 0.62450 34924 ft 382 kts 193°
2026-05-04 15:12 42.89695 0.61090 34934 ft 381 kts 193°
2026-05-04 15:12 42.84497 0.59738 34926 ft 382 kts 194°
2026-05-04 15:13 42.79272 0.58383 34932 ft 381 kts 194°
2026-05-04 15:13 42.74057 0.57031 34921 ft 381 kts 194°
2026-05-04 15:14 42.68884 0.55694 34952 ft 379 kts 194°
2026-05-04 15:14 42.63707 0.54365 34929 ft 381 kts 194°
2026-05-04 15:15 42.58474 0.53026 34902 ft 383 kts 194°
2026-05-04 15:15 42.53218 0.51683 34912 ft 384 kts 194°
2026-05-04 15:16 42.45346 0.49675 34905 ft 384 kts 194°
2026-05-04 15:17 42.37479 0.47673 34903 ft 385 kts 194°
2026-05-04 15:17 42.29561 0.45652 34903 ft 385 kts 194°
2026-05-04 15:18 42.24313 0.44312 34902 ft 384 kts 194°
2026-05-04 15:19 42.16405 0.42296 34892 ft 383 kts 194°
2026-05-04 15:19 42.08579 0.40308 34883 ft 382 kts 194°
2026-05-04 15:20 42.03355 0.38982 34895 ft 381 kts 194°
2026-05-04 15:20 41.98125 0.37658 34891 ft 381 kts 195°
2026-05-04 15:21 41.92948 0.36354 34899 ft 380 kts 195°
2026-05-04 15:22 41.85135 0.34392 34907 ft 380 kts 195°
2026-05-04 15:22 41.77348 0.32438 34901 ft 381 kts 195°
2026-05-04 15:23 41.72121 0.31134 34906 ft 381 kts 195°
2026-05-04 15:23 41.66920 0.29845 34905 ft 382 kts 195°
2026-05-04 15:24 41.56452 0.27257 34897 ft 383 kts 195°
2026-05-04 15:25 41.51233 0.25969 34898 ft 382 kts 195°
2026-05-04 15:26 41.43360 0.24029 34895 ft 383 kts 195°
2026-05-04 15:26 41.35508 0.22099 34891 ft 383 kts 195°
2026-05-04 15:27 41.27641 0.20116 34888 ft 383 kts 196°
2026-05-04 15:28 41.19791 0.18170 34889 ft 382 kts 196°
2026-05-04 15:29 41.11985 0.16146 34897 ft 378 kts 201°
2026-05-04 15:30 40.94349 0.09047 34897 ft 381 kts 201°
2026-05-04 15:31 40.86721 0.06010 34892 ft 382 kts 202°
2026-05-04 15:32 40.73996 0.00890 34886 ft 383 kts 202°
2026-05-04 15:34 40.61253 -0.04220 34911 ft 384 kts 202°
2026-05-04 15:34 40.53563 -0.07287 34917 ft 384 kts 202°
2026-05-04 15:35 40.45864 -0.10326 34945 ft 385 kts 202°
2026-05-04 15:36 40.38197 -0.13347 34950 ft 384 kts 202°
2026-05-04 15:36 40.33077 -0.15362 34959 ft 383 kts 202°
2026-05-04 15:37 40.27994 -0.17359 34960 ft 382 kts 202°
2026-05-04 15:37 40.22889 -0.19367 34956 ft 382 kts 202°
2026-05-04 15:38 40.17799 -0.21380 34948 ft 381 kts 202°
2026-05-04 15:38 40.12742 -0.23380 34937 ft 381 kts 202°
2026-05-04 15:39 40.07664 -0.25379 34935 ft 380 kts 202°
2026-05-04 15:40 40.00061 -0.28375 34909 ft 382 kts 202°
2026-05-04 15:40 39.94954 -0.30349 34903 ft 382 kts 202°
2026-05-04 15:41 39.89839 -0.32314 34898 ft 383 kts 202°
2026-05-04 15:41 39.84753 -0.34285 34908 ft 383 kts 202°
2026-05-04 15:42 39.79631 -0.36283 34909 ft 384 kts 202°
2026-05-04 15:42 39.75359 -0.37945 34910 ft 385 kts 202°
2026-05-04 15:43 39.69839 -0.40086 34910 ft 385 kts 202°
2026-05-04 15:43 39.64691 -0.42082 34910 ft 386 kts 202°
2026-05-04 15:44 39.59571 -0.44064 34908 ft 385 kts 202°
2026-05-04 15:44 39.54414 -0.46056 34882 ft 385 kts 202°
2026-05-04 15:45 39.49323 -0.48052 34880 ft 382 kts 205°
2026-05-04 15:45 39.44595 -0.51024 34882 ft 375 kts 213°
2026-05-04 15:46 39.40000 -0.54264 34880 ft 375 kts 213°
2026-05-04 15:46 39.35433 -0.57457 34890 ft 374 kts 213°
2026-05-04 15:47 39.30835 -0.60654 34892 ft 375 kts 213°
2026-05-04 15:47 39.26238 -0.63841 34896 ft 375 kts 213°
2026-05-04 15:48 39.21659 -0.67011 34891 ft 375 kts 213°
2026-05-04 15:48 39.14738 -0.71795 34909 ft 375 kts 213°
2026-05-04 15:49 39.10127 -0.74976 34902 ft 376 kts 213°
2026-05-04 15:49 39.05531 -0.78140 34911 ft 377 kts 213°
2026-05-04 15:50 39.00893 -0.81332 34918 ft 378 kts 213°
2026-05-04 15:50 38.96255 -0.84521 34910 ft 378 kts 213°
2026-05-04 15:51 38.91631 -0.87696 34914 ft 378 kts 213°
2026-05-04 15:51 38.86970 -0.90892 34907 ft 378 kts 213°
2026-05-04 15:52 38.82349 -0.94056 34917 ft 378 kts 213°
2026-05-04 15:52 38.77712 -0.97227 34919 ft 377 kts 213°
2026-05-04 15:53 38.73099 -1.00375 34921 ft 377 kts 213°
2026-05-04 15:53 38.68467 -1.03530 34924 ft 375 kts 213°
2026-05-04 15:54 38.63888 -1.06642 34917 ft 365 kts 214°
2026-05-04 15:54 38.59451 -1.09653 34917 ft 358 kts 214°
2026-05-04 15:55 38.55066 -1.12634 34655 ft 358 kts 214°
2026-05-04 15:55 38.52900 -1.14101 34359 ft 352 kts 214°
2026-05-04 15:55 38.50752 -1.15556 34027 ft 348 kts 214°
2026-05-04 15:56 38.48618 -1.17000 33615 ft 345 kts 214°
2026-05-04 15:56 38.46499 -1.18434 33211 ft 342 kts 214°
2026-05-04 15:56 38.44405 -1.19850 32835 ft 338 kts 214°
2026-05-04 15:56 38.42354 -1.21236 32455 ft 336 kts 214°
2026-05-04 15:57 38.40298 -1.22626 32081 ft 333 kts 214°
2026-05-04 15:57 38.38261 -1.24001 31738 ft 329 kts 214°
2026-05-04 15:57 38.36237 -1.25366 31378 ft 327 kts 214°
2026-05-04 15:57 38.34235 -1.26716 31038 ft 325 kts 214°
2026-05-04 15:58 38.32242 -1.28059 30677 ft 322 kts 214°
2026-05-04 15:58 38.30280 -1.29380 30335 ft 320 kts 214°
2026-05-04 15:58 38.28316 -1.30702 30001 ft 318 kts 214°
2026-05-04 15:58 38.26359 -1.32018 29596 ft 316 kts 214°
2026-05-04 15:59 38.24416 -1.33324 29230 ft 313 kts 214°
2026-05-04 15:59 38.22495 -1.34614 28885 ft 309 kts 214°
2026-05-04 15:59 38.20598 -1.35886 28520 ft 306 kts 214°
2026-05-04 15:59 38.18726 -1.37142 28168 ft 303 kts 214°
2026-05-04 16:00 38.16894 -1.38371 27824 ft 300 kts 214°
2026-05-04 16:00 38.15052 -1.39605 27489 ft 296 kts 214°
2026-05-04 16:00 38.13239 -1.40819 27154 ft 292 kts 214°
2026-05-04 16:00 38.11442 -1.42023 26823 ft 291 kts 214°
2026-05-04 16:01 38.09652 -1.43222 26480 ft 290 kts 214°
2026-05-04 16:01 38.07881 -1.44408 26165 ft 293 kts 214°
2026-05-04 16:01 38.06038 -1.45645 25834 ft 304 kts 214°
2026-05-04 16:01 38.04138 -1.46917 25475 ft 309 kts 213°
2026-05-04 16:02 38.02235 -1.48186 25114 ft 308 kts 213°
2026-05-04 16:02 38.00342 -1.49445 24765 ft 306 kts 213°
2026-05-04 16:02 37.96615 -1.51928 24071 ft 303 kts 213°
2026-05-04 16:03 37.94750 -1.53170 23726 ft 302 kts 213°
2026-05-04 16:03 37.92894 -1.54404 23379 ft 300 kts 212°
2026-05-04 16:03 37.91038 -1.55638 22980 ft 299 kts 213°
2026-05-04 16:03 37.89203 -1.56846 22408 ft 304 kts 212°
2026-05-04 16:04 37.87328 -1.58064 22051 ft 301 kts 212°
2026-05-04 16:04 37.83600 -1.60478 21315 ft 299 kts 212°
2026-05-04 16:04 37.81744 -1.61679 20970 ft 297 kts 212°
2026-05-04 16:05 37.79930 -1.62853 20642 ft 295 kts 212°
2026-05-04 16:05 37.78109 -1.64032 20312 ft 292 kts 212°
2026-05-04 16:05 37.74508 -1.66363 19672 ft 289 kts 212°
2026-05-04 16:06 37.72724 -1.67518 19350 ft 288 kts 212°
2026-05-04 16:06 37.67981 -1.70585 18497 ft 286 kts 212°
2026-05-04 16:07 37.65638 -1.72099 18052 ft 285 kts 212°
2026-05-04 16:07 37.60385 -1.75487 17041 ft 280 kts 212°
2026-05-04 16:08 37.58658 -1.76599 16728 ft 277 kts 212°
2026-05-04 16:08 37.53563 -1.79880 15810 ft 272 kts 212°
2026-05-04 16:09 37.50209 -1.82037 15200 ft 270 kts 212°
2026-05-04 16:09 37.46864 -1.84186 14595 ft 269 kts 212°
2026-05-04 16:10 37.43521 -1.86331 13978 ft 269 kts 212°
2026-05-04 16:11 37.38560 -1.89511 13008 ft 266 kts 211°
2026-05-04 16:11 37.36911 -1.90567 12706 ft 265 kts 211°
2026-05-04 16:12 37.31991 -1.93715 11774 ft 265 kts 211°
2026-05-04 16:12 37.27067 -1.96861 10839 ft 263 kts 211°
2026-05-04 16:13 37.23823 -1.98940 10191 ft 265 kts 211°
2026-05-04 16:13 37.20621 -2.01087 9734 ft 258 kts 211°
2026-05-04 16:14 37.17472 -2.03207 9137 ft 258 kts 212°
2026-05-04 16:14 37.14308 -2.05331 8558 ft 255 kts 212°
2026-05-04 16:15 37.09643 -2.08453 7727 ft 254 kts 212°
2026-05-04 16:16 37.06515 -2.10542 7183 ft 256 kts 212°
2026-05-04 16:16 37.01548 -2.12748 6408 ft 267 kts 172°
2026-05-04 16:17 36.98603 -2.09964 5850 ft 274 kts 130°
2026-05-04 16:18 36.94469 -2.05677 5265 ft 238 kts 172°
2026-05-04 16:18 36.92909 -2.05655 5174 ft 214 kts 203°
2026-05-04 16:19 36.91223 -2.09135 4818 ft 172 kts 254°
2026-05-04 16:19 36.90369 -2.12579 3984 ft 183 kts 253°
2026-05-04 16:20 36.89392 -2.16564 3110 ft 173 kts 253°
2026-05-04 16:20 36.88755 -2.19234 2692 ft 152 kts 252°
2026-05-04 16:21 36.87769 -2.23240 2040 ft 154 kts 251°
2026-05-04 16:22 36.87193 -2.25591 1725 ft 140 kts 250°
2026-05-04 16:22 36.86299 -2.29232 1119 ft 139 kts 252°
2026-05-04 16:23 36.85494 -2.32512 578 ft 131 kts 247°
2026-05-04 16:24 36.84496 -2.36582 55 ft 44 kts 252°
2026-05-04 16:25 36.84411 -2.36933 55 ft 19 kts 254°
2026-05-04 16:26 36.84269 -2.37529 51 ft 17 kts 252°
2026-05-04 16:26 36.84196 -2.37928 44 ft 17 kts 273°
2026-05-04 16:27 36.84243 -2.38201 40 ft 16 kts 328°
2026-05-04 16:28 36.84356 -2.37883 43 ft 14 kts 72°
2026-05-04 16:28 36.84465 -2.37503 50 ft 11 kts 17°
2026-05-04 16:29 36.84610 -2.37467 51 ft 0 kts 345°